Location: Unspecified
(42.3650°N, 71.1030°W)
Time: 14:58:08
(UTC+00:00)

SJ-6B - Pass Details

Date: 20 June 2024
Orbit: 489 x 545 km, 97.4° (Epoch: 23 July)

Event Time Altitude Azimuth Distance (km) Brightness Sun altitude
Rises 01:03:35 0° 208° (SSW) 2,551 6.1 -6.6°
Reaches altitude 10° 01:06:26 10° 234° (SW) 1,680 5.5 -7.0°
Maximum altitude 01:08:27 14° 268° (W) 1,439 5.7 -7.3°
Drops below altitude 10° 01:10:29 10° 302° (WNW) 1,698 7.0 -7.6°
Sets 01:13:24 0° 328° (NNW) 2,598 8.0 -8.0°
